Year,Month,Day,Hour,Minute,Value (Times are PST for temperature in C)
2019,04,03,00,00,11.00
2019,04,03,00,01,11.00
2019,04,03,00,02,11.00
2019,04,03,00,03,10.90
2019,04,03,00,04,10.90
2019,04,03,00,05,10.90
2019,04,03,00,06,10.90
2019,04,03,00,07,10.80
2019,04,03,00,08,10.80
2019,04,03,00,09,10.80
2019,04,03,00,10,10.80
2019,04,03,00,11,10.70
2019,04,03,00,12,10.70
2019,04,03,00,13,10.70
2019,04,03,00,14,10.70
2019,04,03,00,15,10.70
2019,04,03,00,16,10.70
2019,04,03,00,17,10.60
2019,04,03,00,18,10.60
2019,04,03,00,19,10.60
2019,04,03,00,20,10.50
2019,04,03,00,21,10.50
2019,04,03,00,22,10.50
2019,04,03,00,23,10.50
2019,04,03,00,24,10.40
2019,04,03,00,25,10.40
2019,04,03,00,26,10.40
2019,04,03,00,27,10.40
2019,04,03,00,28,10.40
2019,04,03,00,29,10.40
2019,04,03,00,30,10.40
2019,04,03,00,31,10.50
2019,04,03,00,32,10.50
2019,04,03,00,33,10.50
2019,04,03,00,34,10.60
2019,04,03,00,35,10.60
2019,04,03,00,36,10.60
2019,04,03,00,37,10.60
2019,04,03,00,38,10.60
2019,04,03,00,39,10.60
2019,04,03,00,40,10.60
2019,04,03,00,41,10.60
2019,04,03,00,42,10.60
2019,04,03,00,43,10.60
2019,04,03,00,44,10.60
2019,04,03,00,45,10.60
2019,04,03,00,46,10.60
2019,04,03,00,47,10.50
2019,04,03,00,48,10.50
2019,04,03,00,49,10.50
2019,04,03,00,50,10.50
2019,04,03,00,51,10.50
2019,04,03,00,52,10.50
2019,04,03,00,53,10.50
2019,04,03,00,54,10.50
2019,04,03,00,55,10.50
2019,04,03,00,56,10.50
2019,04,03,00,57,10.50
2019,04,03,00,58,10.50
2019,04,03,00,59,10.50
2019,04,03,01,00,10.50
2019,04,03,01,01,10.40
2019,04,03,01,02,10.40
2019,04,03,01,03,10.40
2019,04,03,01,04,10.40
2019,04,03,01,05,10.40
2019,04,03,01,06,10.30
2019,04,03,01,07,10.30
2019,04,03,01,08,10.30
2019,04,03,01,09,10.30
2019,04,03,01,10,10.30
2019,04,03,01,11,10.30
2019,04,03,01,12,10.30
2019,04,03,01,13,10.30
2019,04,03,01,14,10.20
2019,04,03,01,15,10.30
2019,04,03,01,16,10.20
2019,04,03,01,17,10.20
2019,04,03,01,18,10.20
2019,04,03,01,19,10.20
2019,04,03,01,20,10.20
2019,04,03,01,21,10.20
2019,04,03,01,22,10.20
2019,04,03,01,23,10.20
2019,04,03,01,24,10.20
2019,04,03,01,25,10.20
2019,04,03,01,26,10.20
2019,04,03,01,27,10.20
2019,04,03,01,28,10.10
2019,04,03,01,29,10.10
2019,04,03,01,30,10.10
2019,04,03,01,31,10.10
2019,04,03,01,32,10.10
2019,04,03,01,33,10.10
2019,04,03,01,34,10.10
2019,04,03,01,35,10.00
2019,04,03,01,36,10.00
2019,04,03,01,37,10.00
2019,04,03,01,38,10.00
2019,04,03,01,39,9.90
2019,04,03,01,40,9.90
2019,04,03,01,41,9.90
2019,04,03,01,42,9.90
2019,04,03,01,43,9.90
2019,04,03,01,44,9.90
2019,04,03,01,45,9.90
2019,04,03,01,46,9.90
2019,04,03,01,47,9.90
2019,04,03,01,48,9.90
2019,04,03,01,49,9.90
2019,04,03,01,50,9.90
2019,04,03,01,51,9.90
2019,04,03,01,52,9.90
2019,04,03,01,53,9.90
2019,04,03,01,54,9.90
2019,04,03,01,55,9.80
2019,04,03,01,56,9.80
2019,04,03,01,57,9.80
2019,04,03,01,58,9.80
2019,04,03,01,59,9.80
2019,04,03,02,00,9.80
2019,04,03,02,01,9.80
2019,04,03,02,02,9.80
2019,04,03,02,03,9.80
2019,04,03,02,04,9.80
2019,04,03,02,05,9.80
2019,04,03,02,06,9.80
2019,04,03,02,07,9.80
2019,04,03,02,08,9.80
2019,04,03,02,09,9.80
2019,04,03,02,10,9.80
2019,04,03,02,11,9.80
2019,04,03,02,12,9.80
2019,04,03,02,13,9.80
2019,04,03,02,14,9.70
2019,04,03,02,15,9.70
2019,04,03,02,16,9.70
2019,04,03,02,17,9.70
2019,04,03,02,18,9.70
2019,04,03,02,19,9.70
2019,04,03,02,20,9.70
2019,04,03,02,21,9.70
2019,04,03,02,22,9.70
2019,04,03,02,23,9.70
2019,04,03,02,24,9.70
2019,04,03,02,25,9.70
2019,04,03,02,26,9.70
2019,04,03,02,27,9.70
2019,04,03,02,28,9.70
2019,04,03,02,29,9.70
2019,04,03,02,30,9.70
2019,04,03,02,31,9.70
2019,04,03,02,32,9.70
2019,04,03,02,33,9.70
2019,04,03,02,34,9.60
2019,04,03,02,35,9.60
2019,04,03,02,36,9.60
2019,04,03,02,37,9.60
2019,04,03,02,38,9.60
2019,04,03,02,39,9.60
2019,04,03,02,40,9.60
2019,04,03,02,41,9.60
2019,04,03,02,42,9.60
2019,04,03,02,43,9.60
2019,04,03,02,44,9.60
2019,04,03,02,45,9.60
2019,04,03,02,46,9.60
2019,04,03,02,47,9.60
2019,04,03,02,48,9.60
2019,04,03,02,49,9.60
2019,04,03,02,50,9.60
2019,04,03,02,51,9.60
2019,04,03,02,52,9.60
2019,04,03,02,53,9.60
2019,04,03,02,54,9.60
2019,04,03,02,55,9.60
2019,04,03,02,56,9.60
2019,04,03,02,57,9.60
2019,04,03,02,58,9.60
2019,04,03,02,59,9.60
2019,04,03,03,00,9.60
2019,04,03,03,01,9.60
2019,04,03,03,02,9.60
2019,04,03,03,03,9.60
2019,04,03,03,04,9.60
2019,04,03,03,05,9.60
2019,04,03,03,06,9.60
2019,04,03,03,07,9.60
2019,04,03,03,08,9.60
2019,04,03,03,09,9.60
2019,04,03,03,10,9.60
2019,04,03,03,11,9.60
2019,04,03,03,12,9.60
2019,04,03,03,13,9.60
2019,04,03,03,14,9.60
2019,04,03,03,15,9.60
2019,04,03,03,16,9.60
2019,04,03,03,17,9.50
2019,04,03,03,18,9.60
2019,04,03,03,19,9.50
2019,04,03,03,20,9.50
2019,04,03,03,21,9.50
2019,04,03,03,22,9.50
2019,04,03,03,23,9.50
2019,04,03,03,24,9.50
2019,04,03,03,25,9.50
2019,04,03,03,26,9.50
2019,04,03,03,27,9.50
2019,04,03,03,28,9.50
2019,04,03,03,29,9.50
2019,04,03,03,30,9.50
2019,04,03,03,31,9.50
2019,04,03,03,32,9.50
2019,04,03,03,33,9.50
2019,04,03,03,34,9.50
2019,04,03,03,35,9.50
2019,04,03,03,36,9.50
2019,04,03,03,37,9.50
2019,04,03,03,38,9.50
2019,04,03,03,39,9.50
2019,04,03,03,40,9.50
2019,04,03,03,41,9.50
2019,04,03,03,42,9.50
2019,04,03,03,43,9.50
2019,04,03,03,44,9.50
2019,04,03,03,45,9.50
2019,04,03,03,46,9.50
2019,04,03,03,47,9.50
2019,04,03,03,48,9.50
2019,04,03,03,49,9.50
2019,04,03,03,50,9.40
2019,04,03,03,51,9.40
2019,04,03,03,52,9.40
2019,04,03,03,53,9.40
2019,04,03,03,54,9.40
2019,04,03,03,55,9.40
2019,04,03,03,56,9.40
2019,04,03,03,57,9.40
2019,04,03,03,58,9.40
2019,04,03,03,59,9.40
2019,04,03,04,00,9.40
2019,04,03,04,01,9.40
2019,04,03,04,02,9.40
2019,04,03,04,03,9.40
2019,04,03,04,04,9.40
2019,04,03,04,05,9.40
2019,04,03,04,06,9.40
2019,04,03,04,07,9.40
2019,04,03,04,08,9.40
2019,04,03,04,09,9.40
2019,04,03,04,10,9.40
2019,04,03,04,11,9.40
2019,04,03,04,12,9.40
2019,04,03,04,13,9.40
2019,04,03,04,14,9.30
2019,04,03,04,15,9.40
2019,04,03,04,16,9.30
2019,04,03,04,17,9.30
2019,04,03,04,18,9.30
2019,04,03,04,19,9.30
2019,04,03,04,20,9.30
2019,04,03,04,21,9.40
2019,04,03,04,22,9.40
2019,04,03,04,23,9.40
2019,04,03,04,24,9.40
2019,04,03,04,25,9.40
2019,04,03,04,26,9.40
2019,04,03,04,27,9.40
2019,04,03,04,28,9.40
2019,04,03,04,29,9.40
2019,04,03,04,30,9.40
2019,04,03,04,31,9.40
2019,04,03,04,32,9.40
2019,04,03,04,33,9.40
2019,04,03,04,34,9.40
2019,04,03,04,35,9.40
2019,04,03,04,36,9.40
2019,04,03,04,37,9.40
2019,04,03,04,38,9.40
2019,04,03,04,39,9.40
2019,04,03,04,40,9.40
2019,04,03,04,41,9.40
2019,04,03,04,42,9.40
2019,04,03,04,43,9.40
2019,04,03,04,44,9.40
2019,04,03,04,45,9.40
2019,04,03,04,46,9.40
2019,04,03,04,47,9.40
2019,04,03,04,48,9.40
2019,04,03,04,49,9.40
2019,04,03,04,50,9.40
2019,04,03,04,51,9.40
2019,04,03,04,52,9.40
2019,04,03,04,53,9.40
2019,04,03,04,54,9.40
2019,04,03,04,55,9.40
2019,04,03,04,56,9.40
2019,04,03,04,57,9.40
2019,04,03,04,58,9.40
2019,04,03,04,59,9.40
2019,04,03,05,00,9.40
2019,04,03,05,01,9.40
2019,04,03,05,02,9.40
2019,04,03,05,03,9.40
2019,04,03,05,04,9.40
2019,04,03,05,05,9.40
2019,04,03,05,06,9.40
2019,04,03,05,07,9.40
2019,04,03,05,08,9.40
2019,04,03,05,09,9.40
2019,04,03,05,10,9.40
2019,04,03,05,11,9.40
2019,04,03,05,12,9.40
2019,04,03,05,13,9.40
2019,04,03,05,14,9.50
2019,04,03,05,15,9.40
2019,04,03,05,16,9.40
2019,04,03,05,17,9.40
2019,04,03,05,18,9.40
2019,04,03,05,19,9.40
2019,04,03,05,20,9.40
2019,04,03,05,21,9.40
2019,04,03,05,22,9.40
2019,04,03,05,23,9.40
2019,04,03,05,24,9.40
2019,04,03,05,25,9.40
2019,04,03,05,26,9.40
2019,04,03,05,27,9.40
2019,04,03,05,28,9.40
2019,04,03,05,29,9.40
2019,04,03,05,30,9.40
2019,04,03,05,31,9.40
2019,04,03,05,32,9.40
2019,04,03,05,33,9.40
2019,04,03,05,34,9.40
2019,04,03,05,35,9.40
2019,04,03,05,36,9.50
2019,04,03,05,37,9.40
2019,04,03,05,38,9.40
2019,04,03,05,39,9.40
2019,04,03,05,40,9.40
2019,04,03,05,41,9.50
2019,04,03,05,42,9.50
2019,04,03,05,43,9.50
2019,04,03,05,44,9.50
2019,04,03,05,45,9.50
2019,04,03,05,46,9.50
2019,04,03,05,47,9.50
2019,04,03,05,48,9.50
2019,04,03,05,49,9.50
2019,04,03,05,50,9.50
2019,04,03,05,51,9.50
2019,04,03,05,52,9.50
2019,04,03,05,53,9.50
2019,04,03,05,54,9.50
2019,04,03,05,55,9.50
2019,04,03,05,56,9.50
2019,04,03,05,57,9.50
2019,04,03,05,58,9.50
2019,04,03,05,59,9.50
2019,04,03,06,00,9.50
2019,04,03,06,01,9.50
2019,04,03,06,02,9.60
2019,04,03,06,03,9.60
2019,04,03,06,04,9.60
2019,04,03,06,05,9.60
2019,04,03,06,06,9.60
2019,04,03,06,07,9.60
2019,04,03,06,08,9.60
2019,04,03,06,09,9.60
2019,04,03,06,10,9.60
2019,04,03,06,11,9.60
2019,04,03,06,12,9.60
2019,04,03,06,13,9.60
2019,04,03,06,14,9.50
2019,04,03,06,15,9.50
2019,04,03,06,16,9.50
2019,04,03,06,17,9.50
2019,04,03,06,18,9.50
2019,04,03,06,19,9.50
2019,04,03,06,20,9.50
2019,04,03,06,21,9.50
2019,04,03,06,22,9.50
2019,04,03,06,23,9.50
2019,04,03,06,24,9.50
2019,04,03,06,25,9.50
2019,04,03,06,26,9.50
2019,04,03,06,27,9.50
2019,04,03,06,28,9.50
2019,04,03,06,29,9.50
2019,04,03,06,30,9.50
2019,04,03,06,31,9.50
2019,04,03,06,32,9.50
2019,04,03,06,33,9.50
2019,04,03,06,34,9.50
2019,04,03,06,35,9.50
2019,04,03,06,36,9.50
2019,04,03,06,37,9.50
2019,04,03,06,38,9.50
2019,04,03,06,39,9.50
2019,04,03,06,40,9.50
2019,04,03,06,41,9.50
2019,04,03,06,42,9.50
2019,04,03,06,43,9.50
2019,04,03,06,44,9.50
2019,04,03,06,45,9.50
2019,04,03,06,46,9.50
2019,04,03,06,47,9.50
2019,04,03,06,48,9.50
2019,04,03,06,49,9.50
2019,04,03,06,50,9.50
2019,04,03,06,51,9.50
2019,04,03,06,52,9.50
2019,04,03,06,53,9.50
2019,04,03,06,54,9.50
2019,04,03,06,55,9.50
2019,04,03,06,56,9.50
2019,04,03,06,57,9.50
2019,04,03,06,58,9.50
2019,04,03,06,59,9.50
2019,04,03,07,00,9.50
2019,04,03,07,01,9.50
2019,04,03,07,02,9.50
2019,04,03,07,03,9.50
2019,04,03,07,04,9.50
2019,04,03,07,05,9.50
2019,04,03,07,06,9.50
2019,04,03,07,07,9.50
2019,04,03,07,08,9.50
2019,04,03,07,09,9.50
2019,04,03,07,10,9.50
2019,04,03,07,11,9.40
2019,04,03,07,12,9.50
2019,04,03,07,13,9.50
2019,04,03,07,14,9.50
2019,04,03,07,15,9.50
2019,04,03,07,16,9.50
2019,04,03,07,17,9.50
2019,04,03,07,18,9.50
2019,04,03,07,19,9.50
2019,04,03,07,20,9.60
2019,04,03,07,21,9.60
2019,04,03,07,22,9.50
2019,04,03,07,23,9.50
2019,04,03,07,24,9.50
2019,04,03,07,25,9.50
2019,04,03,07,26,9.50
2019,04,03,07,27,9.50
2019,04,03,07,28,9.50
2019,04,03,07,29,9.50
2019,04,03,07,30,9.50
2019,04,03,07,31,9.60
2019,04,03,07,32,9.60
2019,04,03,07,33,9.60
2019,04,03,07,34,9.60
2019,04,03,07,35,9.60
2019,04,03,07,36,9.60
2019,04,03,07,37,9.60
2019,04,03,07,38,9.60
2019,04,03,07,39,9.60
2019,04,03,07,40,9.60
2019,04,03,07,41,9.60
2019,04,03,07,42,9.50
2019,04,03,07,43,9.50
2019,04,03,07,44,9.50
2019,04,03,07,45,9.50
2019,04,03,07,46,9.50
2019,04,03,07,47,9.50
2019,04,03,07,48,9.50
2019,04,03,07,49,9.50
2019,04,03,07,50,9.50
2019,04,03,07,51,9.50
2019,04,03,07,52,9.50
